Regional Weather Roundup
Issued by NWS

Home | Current Version | Previous Version | Graphics & Text | Print | Product List | Glossary On
Versions: 1 2 3 4 5 6 7 8 9 10 11 12 13 14 15 16 17 18 19 20 21 22 23 24 25 26 27 28 29 30 31 32 33 34 35 36 37 38 39 40 41 42 43 44 45 46 47 48 49 50
000
ASUS43 KMKX 310600
RWRWI

WISCONSIN REGIONAL WEATHER ROUNDUP
NATIONAL WEATHER SERVICE MILWAUKEE/SULLIVAN WI
100 AM CDT MON AUG 31 2015

NOTE: "FAIR" INDICATES FEW OR NO CLOUDS BELOW 12,000 FEET WITH NO
SIGNIFICANT WEATHER AND/OR OBSTRUCTIONS TO VISIBILITY.

WIZ001-002-006>008-014>016-023>028-310700-
NORTHWEST WISCONSIN

CITY           SKY/WX    TMP DP  RH WIND       PRES   REMARKS
SUPERIOR ARPT  FAIR      67  65  94 SW6       29.88S
ASHLAND        FAIR      66  66 100 SW8       29.91S
6HR MIN TEMP:  66; 6HR MAX TEMP:  74;

HAYWARD        FAIR      65  63  93 S7        29.95S
6HR MIN TEMP:  64; 6HR MAX TEMP:  73;

SIREN          FAIR      67  64  91 S6        29.93S
CUMBERLAND     FAIR      61  59  94 S6        29.96S FOG
RICE LAKE      FAIR      62  60  94 S3        29.98R
CHETEK         FAIR     N/A N/A N/A SE3       29.97R
LADYSMITH      FAIR      63  62  96 SE3       30.00R FOG
EAU CLAIRE     FAIR      62  60  93 S5        29.97R
6HR MIN TEMP:  62; 6HR MAX TEMP:  73;

MENOMONIE      FAIR      63  62  97 SE5       29.98R
6HR MIN TEMP:  62; 6HR MAX TEMP:  73;

NEW RICHMOND   FAIR      64  64  97 S7        29.96R
OSCEOLA        FAIR      65  65 100 S6        29.97R
$$

WIZ003>005-009-010-017-018-310700-
NORTH CENTRAL WISCONSIN

CITY           SKY/WX    TMP DP  RH WIND       PRES   REMARKS
MANITOWISH WTR CLOUDY    64  64 100 SW6       29.98S
ARBOR VITAE    FAIR      62  61  96 CALM      29.99S FOG
WOODRUFF       FAIR      62  61  96 CALM      29.99S FOG
RHINELANDER    CLOUDY    63  62  97 SW6       30.01R
6HR MIN TEMP:  63; 6HR MAX TEMP:  73;

EAGLE RIVER    FAIR      63  63  99 SW3       29.99S
LAND O LAKES   FAIR      64  63  97 SW3       29.99S
PHILLIPS       MOCLDY    61  61 100 SW5       29.98S
6HR MIN TEMP:  61; 6HR MAX TEMP:  73;

TOMAHAWK       FOG       58  57  97 CALM      30.00S VSB 3/4
MEDFORD        FAIR      60  60 100 CALM      30.01R FOG
MERRILL        FAIR      57  57 100 CALM      30.01R
$$

WIZ029-030-035-036-043>047-310700-
CENTRAL WISCONSIN

CITY           SKY/WX    TMP DP  RH WIND       PRES   REMARKS
WAUSAU         FAIR      62  62 100 SW5       29.99S FOG
6HR MIN TEMP:  62; 6HR MAX TEMP:  73;

MOSINEE        FOG       59  59 100 CALM      30.01S VSB 3/4
MARSHFIELD     FOG       62  59  90 SW5       30.01R VSB 1/4
6HR MIN TEMP:  61; 6HR MAX TEMP:  67;

STEVENS POINT  FAIR      61  61 100 CALM      30.01S FOG
WAUPACA        FOG       62  61  97 CALM      30.00F VSB 1/4
WAUTOMA        FOG       59  59 100 CALM      30.02R VSB 1/4
WISC RAPIDS    FOG       61  59  93 SW3       30.01S VSB 3/4
6HR MIN TEMP:  61; 6HR MAX TEMP:  72; 6HR PCP: TRACE;

CAMP DOUGLAS   NOT AVBL
$$

WIZ011>013-019>022-031-037>040-048>050-310700-
NORTHEAST WISCONSIN

CITY           SKY/WX    TMP DP  RH WIND       PRES   REMARKS
ANTIGO         FOG       58  58 100 CALM      30.01S VSB 1/4
SHAWANO        FAIR      65  63  93 CALM      29.99S
OCONTO         FAIR      60  60 100 CALM      29.98S
STURGEON BAY   FAIR      63  59  88 S3        30.01S
6HR MIN TEMP:  63; 6HR MAX TEMP:  68;

GREEN BAY      FAIR      63  61  93 S3        30.00S FOG
6HR MIN TEMP:  61; 6HR MAX TEMP:  70;

MANITOWOC      FOG       61  61 100 MISG      30.01S VSB 1/2
APPLETON       FAIR      61  61 100 S6        29.99F
CLINTONVILLE   FOG       61  59  94 CALM      29.99F VSB 1/2
OSHKOSH        FAIR      62  60  93 S6        30.01S
6HR MIN TEMP:  59; 6HR MAX TEMP:  69;

$$

WIZ032>034-041-042-053>061-310700-
SOUTHWEST WISCONSIN

CITY           SKY/WX    TMP DP  RH WIND       PRES   REMARKS
LA CROSSE      FAIR      64  63  96 SE3       29.99S FOG
6HR MIN TEMP:  63; 6HR MAX TEMP:  73;

SPARTA         FAIR      56  55  96 CALM      30.01S
VIROQUA          N/A     63  63 100 S5        30.02S
BOSCOBEL       FOG       59  58  96 CALM      30.02S VSB 1/4
6HR MIN TEMP:  59; 6HR MAX TEMP:  73;

PRAIRIE DU CHI FAIR      62  60  95 CALM      30.01S FOG
PLATTEVILLE    FAIR      63  63 100 S6        30.03S
$$

WIZ056-057-062-063-064-067-068-310700-
SOUTH CENTRAL WISCONSIN

CITY           SKY/WX    TMP DP  RH WIND       PRES   REMARKS
REEDSBURG      FAIR      62  61  99 CALM      30.01S
BARABOO/DELLS  FAIR      61  59  94 CALM      30.02S FOG
LONE ROCK      FOG       59  58  96 E3        30.03S VSB 1/4
MINERAL POINT  FAIR      64  63  94 S5        30.04S FOG
MADISON        FAIR      66  62  87 CALM      30.02S
6HR MIN TEMP:  64; 6HR MAX TEMP:  72;

MIDDLETON        N/A     60  60 100 CALM      30.03S
WATERTOWN      FAIR      61  61 100 CALM      30.03S
MONROE         FAIR      63  61  94 S3        30.04S
JANESVILLE     FAIR      63  61  94 CALM      30.03S FOG
$$

WIZ051-052-058>065-066-070>072-310700-
SOUTHEAST WISCONSIN

CITY           SKY/WX    TMP DP  RH WIND       PRES   REMARKS
MILWAUKEE      FAIR      63  60  90 SW3       30.03S FOG
6HR MIN TEMP:  62; 6HR MAX TEMP:  66;

WAUKESHA       FAIR      61  59  94 CALM      30.04S
MILWAUKEE/TIMM FOG       61  59  94 CALM      30.03S VSB 1/2
RACINE         FAIR      62  60  93 SW5       30.05S FOG
6HR MIN TEMP:  62; 6HR MAX TEMP:  67;

BURLINGTON     FOG       55  55  99 CALM      30.03F VSB 3/4
KENOSHA        FOG       60  59  96 SW3       30.04S VSB 1/4
6HR MIN TEMP:  59; 6HR MAX TEMP:  67;

FOND DU LAC    FAIR      60  59  96 S5        30.02S
6HR MIN TEMP:  60; 6HR MAX TEMP:  70;

SHEBOYGAN      FOG       58  57  97 SW3       30.02S VSB 1
6HR MIN TEMP:  57; 6HR MAX TEMP:  66;

WEST BEND      FAIR      61  59  94 CALM      30.03S
JUNEAU         FAIR      62  61  97 S3        30.04S FOG
$$

LSZ147-162-310700-
LAKE SUPERIOR

STATION/POSITION TIME  TEMP    WIND        PRES    WAVE
                       AIR SEA DIR/SP/G            HT/PER
                 (UTC) (F)     (DEG/KT/KT) (MB)    (FT/S)
W MID LAKE BUOY  0450   61 55  220/ 10/ 12 1011.7R   1/ 3
DEVILS ISLAND    0500   70     200/  6/  7 1011.7R
PORT WING        0500   70     180/  7/  9 1011.9S
SAXON HARBOR     0540   70     190/  3/ 11 1012.2R
$$

LMZ867-665-643>646-310700-
LAKE MICHIGAN

STATION/POSITION TIME  TEMP    WIND        PRES    WAVE
                       AIR SEA DIR/SP/G            HT/PER
                 (UTC) (F)     (DEG/KT/KT) (MB)    (FT/S)
CHAMBERS ISLAND  0500   64     190/  5/ 11 1014.9S
N MID LAKE BUOY  0450   64 65  210/ 16/ 17 1014.6R   3/ 5
NORTHPORT PIER   0501   63     150/  3/  5 1014.9S
SHEBOYGAN LAKESH 0500   62     210/  7/  7 1016.6S
PORT WASHINGTON  0540   58     240/  1/  1 1017.3S
ATWATER BUOY     0500   58 50  190/  6/  6 1017.9S
MILWAUKEE LAKESH 0500   65     220/  5/  6   N/A
S MID LAKE BUOY  0450   68 69  170/  6/  8 1016.8R   0
KENOSHA   LAKESH 0500   65     200/  6/  7 1016.9S
$$

TC  - TEMPERATURE IN CELSIUS
VSB - VISIBILITY IN STATUTE MILES
WCI - WIND CHILL INDEX
HX  - HEAT INDEX



USA.gov is the U.S. government's official web portal to all federal, state and local government web resources and services.